Location: *
(46.3500°N, 10.9000°E)
Time: 18:47:14
(UTC+00:00)

S-56A Canister/Altair - Visible Passes

Search period start: 19 April 2021 00:00
Search period end: 29 April 2021 00:00
Orbit: 632 x 2500 km, 38.9° (Epoch: 18 April)

Date Brightness Start Highest point End Pass type
(mag) Time Alt. Az. Time Alt. Az. Time Alt. Az.
19 Apr 8.2 02:46:11 25° SSW 02:46:53 26° SSW 02:50:34 10° SE visible
20 Apr 8.3 02:15:24 26° S 02:15:24 26° S 02:18:18 10° SE visible
21 Apr 9.1 01:44:43 18° SE 01:44:43 18° SE 01:46:02 10° SE visible
21 Apr 9.1 03:43:04 10° SW 03:44:35 11° SSW 03:46:04 10° SSW visible
21 Apr 10.4 20:55:34 10° SSW 20:57:23 14° SSW 20:57:23 14° SSW visible
22 Apr 8.9 03:11:35 14° SW 03:12:08 14° SSW 03:14:27 10° S visible
22 Apr 9.9 20:22:29 10° SSW 20:27:54 22° S 20:27:54 22° S visible
23 Apr 9.0 02:41:10 15° S 02:41:10 15° S 02:42:38 10° S visible
23 Apr 9.7 19:49:26 10° SSW 19:56:58 22° SSE 19:58:20 21° SE visible
23 Apr 10.1 21:52:38 10° SW 21:55:52 21° SW 21:55:52 21° SW visible
24 Apr 10.0 19:16:24 10° SSW 19:24:06 21° SSE 19:28:39 14° ESE visible
24 Apr 9.3 21:19:17 10° SW 21:26:10 35° SSW 21:26:10 35° SSW visible
25 Apr 10.2 18:43:26 10° S 18:51:11 20° SSE 18:57:21 10° ESE visible
25 Apr 9.0 20:45:55 10° SW 20:55:21 39° SSE 20:56:16 38° SSE visible
25 Apr 10.1 22:51:11 10° WSW 22:53:46 19° WSW 22:53:46 19° WSW visible
26 Apr 9.3 20:12:31 10° SW 20:22:30 38° SSE 20:26:09 26° ESE visible
26 Apr 9.3 22:17:47 10° WSW 22:23:39 35° SW 22:23:39 35° SW visible
27 Apr 9.5 19:39:07 10° SW 19:49:35 37° SSE 19:55:51 15° ESE visible
27 Apr 8.7 21:44:18 10° WSW 21:53:20 49° S 21:53:20 49° S visible
27 Apr 10.5 23:50:18 10° W 23:50:47 12° W 23:50:47 12° W visible
28 Apr 9.7 19:05:45 10° SW 19:16:37 36° SSE 19:24:25 10° E visible
28 Apr 8.8 21:10:46 10° WSW 21:21:00 51° S 21:22:49 44° SE visible
28 Apr 9.9 23:16:53 10° W 23:20:17 22° WSW 23:20:17 22° WSW visible
